Weather History for Nuiqsut, AK

Change the Weather History Date:

Tuesday, October 9, 2012

  Actual Average (PAKU) Record (PAKU)
Temperature  
Mean Temperature 26 °F -  
Max Temperature 30 °F 22 °F 41 °F (2002)
Min Temperature 21 °F 16 °F -4 °F (1986)
Degree Days  
Heating Degree Days 40    
Moisture  
Dew Point 27 °F    
Average Humidity 95    
Maximum Humidity 100    
Minimum Humidity 89    
Precipitation  
Precipitation 0.00 in - - ()
Sea Level Pressure  
Sea Level Pressure 30.63 in    
Wind  
Wind Speed 13 mph (WSW)    
Max Wind Speed 17 mph    
Max Gust Speed -    
Visibility 8 miles    
Events Fog , Snow    
Averages and records for this station are not official NWS values.
T = Trace of Precipitation, MM = Missing Value Source: NWS Daily Summary

Daily Weather History Graph

Daily Weather History Graph

Search for Another Location

Airport:

Trip Planner

Search our weather history database for the weather conditions in past years. The results will help you decide how hot, cold, wet, or windy it might be!

Date:

Astronomy

Oct. 09, 2012 Rise Set
Actual Time 8:55 AM AKDT 6:44 PM AKDT
Civil Twilight 7:53 AM AKDT 7:46 PM AKDT
Nautical Twilight 6:41 AM AKDT 8:57 PM AKDT
Astronomical Twilight 5:23 AM AKDT 10:14 PM AKDT
Moon No Moon Rise 6:12 PM AKDT (10/9)
Length of Visible Light 11h 53m
Length of Day
9h 48m
Waning Crescent, 35% of the Moon is Illuminated
Oct 9
Waning Crescent
Oct 15
New
Oct 21
First Quarter
Oct 29
Full
Nov 6
Last Quarter

Hourly Weather History & Observations

Time (AKDT) Temp. Windchill Dew Point Humidity Pressure Visibility Wind Dir Wind Speed Gust Speed Precip Events Conditions
12:53 AM 24.1 °F 12.5 °F 21.9 °F 91% 30.58 in 10.0 mi WSW 12.7 mph - N/A   Clear
1:53 AM 21.9 °F 10.4 °F 19.9 °F 92% 30.58 in 10.0 mi SW 11.5 mph - N/A   Clear
2:53 AM 25.0 °F 13.1 °F 23.0 °F 92% 30.59 in 10.0 mi WSW 13.8 mph - N/A   Mostly Cloudy
3:19 AM 26.6 °F 14.7 °F 24.8 °F 93% 30.59 in 10.0 mi WSW 15.0 mph - N/A   Mostly Cloudy
3:53 AM 27.0 °F 16.1 °F 24.1 °F 89% 30.59 in 10.0 mi WSW 12.7 mph - N/A   Overcast
4:53 AM 28.0 °F 17.0 °F 26.1 °F 92% 30.60 in 10.0 mi WSW 13.8 mph - N/A   Overcast
5:28 AM 26.6 °F 13.8 °F 24.8 °F 93% 30.59 in 10.0 mi SW 17.3 mph - N/A   Overcast
5:32 AM 26.6 °F 13.8 °F 24.8 °F 93% 30.59 in 10.0 mi WSW 17.3 mph - N/A   Overcast
5:45 AM 26.6 °F 14.7 °F 24.8 °F 93% 30.60 in 10.0 mi SW 15.0 mph - N/A   Overcast
5:53 AM 27.0 °F 15.6 °F 26.1 °F 96% 30.60 in 10.0 mi SW 13.8 mph - N/A   Overcast
6:53 AM 28.0 °F 16.5 °F 27.0 °F 96% 30.60 in 10.0 mi WSW 15.0 mph - N/A   Overcast
7:02 AM 28.4 °F 17.5 °F 26.6 °F 93% 30.60 in 10.0 mi WSW 13.8 mph - N/A   Overcast
7:53 AM 28.0 °F 17.0 °F 27.0 °F 96% 30.61 in 10.0 mi SW 13.8 mph - N/A   Overcast
8:53 AM 28.0 °F 16.5 °F 27.0 °F 96% 30.61 in 10.0 mi SW 15.0 mph - N/A   Overcast
9:53 AM 28.9 °F 18.2 °F 28.0 °F 96% 30.62 in 9.0 mi WSW 13.8 mph - N/A   Overcast
10:44 AM 28.4 °F 17.0 °F 28.4 °F 100% 30.62 in 10.0 mi WSW 15.0 mph - 0.00 in   Overcast
10:53 AM 30.0 °F 19.1 °F 28.0 °F 92% 30.63 in 7.0 mi WSW 15.0 mph - 0.00 in Snow Light Snow
11:31 AM 30.2 °F 19.8 °F 28.4 °F 93% 30.63 in 1.5 mi WSW 13.8 mph - 0.00 in Snow Light Snow
11:49 AM 30.2 °F 20.2 °F 28.4 °F 93% 30.63 in 0.5 mi WSW 12.7 mph - 0.00 in Fog , Snow Snow
11:53 AM 30.0 °F 20.0 °F 28.9 °F 96% 30.64 in 0.8 mi WSW 12.7 mph - 0.00 in Snow Light Snow
12:01 PM 30.2 °F 18.9 °F 28.4 °F 93% 30.63 in 1.8 mi WSW 16.1 mph - 0.00 in Snow Light Snow
12:04 PM 30.2 °F 19.3 °F 28.4 °F 93% 30.63 in 4.0 mi WSW 15.0 mph - 0.00 in Snow Light Snow
12:33 PM 30.2 °F 20.2 °F 30.2 °F 100% 30.63 in 10.0 mi WSW 12.7 mph - 0.00 in   Overcast
12:53 PM 30.0 °F 19.1 °F 28.9 °F 96% 30.64 in 10.0 mi West 15.0 mph - 0.00 in   Overcast
1:38 PM 30.2 °F 20.2 °F 28.4 °F 93% 30.64 in 10.0 mi West 12.7 mph - N/A   Overcast
1:53 PM 30.9 °F 22.2 °F 30.0 °F 96% 30.65 in 10.0 mi West 10.4 mph - N/A   Overcast
2:53 PM 30.9 °F 22.2 °F 28.9 °F 92% 30.65 in 10.0 mi WSW 10.4 mph - N/A   Overcast
3:53 PM 30.9 °F 22.2 °F 28.9 °F 92% 30.66 in 10.0 mi WSW 10.4 mph - 0.00 in   Overcast
3:57 PM 30.2 °F 21.3 °F 28.4 °F 93% 30.65 in 10.0 mi West 10.4 mph - N/A   Overcast
4:13 PM 30.2 °F 20.8 °F 28.4 °F 93% 30.65 in 1.8 mi West 11.5 mph - 0.00 in Snow Light Snow
4:27 PM 30.2 °F 21.3 °F 30.2 °F 100% 30.65 in 1.0 mi West 10.4 mph - 0.00 in Snow Light Snow
4:49 PM 30.2 °F 21.3 °F 30.2 °F 100% 30.65 in 3.0 mi West 10.4 mph - 0.00 in Snow Light Snow
4:53 PM 30.0 °F 21.1 °F 30.0 °F 100% 30.66 in 8.0 mi West 10.4 mph - 0.00 in Snow Light Snow
5:04 PM 30.2 °F 21.9 °F 30.2 °F 100% 30.66 in 9.0 mi West 9.2 mph - 0.00 in Snow Light Snow
5:53 PM 30.0 °F 21.1 °F 28.9 °F 96% 30.66 in 9.0 mi WSW 10.4 mph - 0.00 in Snow Light Snow
6:53 PM 28.9 °F 21.1 °F 28.0 °F 96% 30.66 in 10.0 mi WSW 8.1 mph - 0.00 in   Overcast
7:53 PM 28.0 °F 19.3 °F 28.0 °F 100% 30.66 in 10.0 mi West 9.2 mph - 0.00 in   Overcast
8:53 PM 28.0 °F 20.0 °F 27.0 °F 96% 30.66 in 10.0 mi WSW 8.1 mph - 0.00 in   Overcast
9:53 PM 28.0 °F 19.3 °F 27.0 °F 96% 30.66 in 10.0 mi West 9.2 mph - 0.00 in   Overcast
10:17 PM 28.4 °F 19.7 °F 26.6 °F 93% 30.66 in 10.0 mi WSW 9.2 mph - 0.00 in   Overcast
10:24 PM 28.4 °F 20.4 °F 26.6 °F 93% 30.66 in 10.0 mi WSW 8.1 mph - 0.00 in   Overcast
10:53 PM 28.0 °F 18.6 °F 27.0 °F 96% 30.66 in 10.0 mi West 10.4 mph - 0.00 in   Overcast
11:53 PM 28.0 °F 20.0 °F 28.0 °F 100% 30.66 in 10.0 mi West 8.1 mph - 0.00 in   Overcast